Regional Weather Roundup
Issued by NWS Goodland, KS

Home | Current Version | Previous Version | Text Only | Print | Product List | Glossary On
Versions: 1 2 3 4 5 6 7 8 9 10 11 12 13 14 15 16 17 18 19 20 21 22 23 24 25 26 27 28 29 30 31 32 33 34 35 36 37 38 39 40 41 42 43 44 45 46 47 48 49 50
915
ASUS43 KGLD 040008
RWRGLD

GOODLAND FORECAST AREA HOURLY WEATHER ROUNDUP
NATIONAL WEATHER SERVICE GOODLAND KS
600 PM MDT TUE MAY 03 2016

...OFFICIAL OBSERVATIONS...

CITY           SKY/WX    TMP DP  RH WIND       PRES   REMARKS
GOODLAND KS    SUNNY     66  34  30 N15       30.09S
HILL CITY KS   SUNNY     69  41  36 N8        30.04F
IMPERIAL NEB   SUNNY     69  35  28 N13       30.07S
MCCOOK NEB     SUNNY     68  40  35 N12       30.04S
AKRON CO       SUNNY     67  31  26 N16       30.14S
BURLINGTON CO  SUNNY     66  28  24 N16       30.12S
LIMON CO       SUNNY     63  31  30 N20G28    30.18S
$$

...UNOFFICIAL OBSERVATIONS...

CITY           SKY/WX    TMP DP  RH WIND       PRES   REMARKS
COLBY KS       SUNNY     64  45  48 N10       30.09S
NORTON KS      SUNNY     68  37  32 NW9       30.03S
SHARON SPRINGS   N/A     65  39  39 N12G20      N/A
TRIBUNE KS     SUNNY     68  36  30 NW16      30.12
KIT CARSON CO    N/A     70  31  23 MISG        N/A
YUMA CO          N/A     68  34  28 NE10        N/A
$$




USA.gov is the U.S. government's official web portal to all federal, state and local government web resources and services.